Regional Weather Roundup
Issued by NWS Kansas City/Pleasant Hill, MO

Home | Current Version | Previous Version | Text Only | Print | Product List | Glossary On
Versions: 1 2 3 4 5 6 7 8 9 10 11 12 13 14 15 16 17 18 19 20 21 22 23 24 25 26 27 28 29 30 31 32 33 34 35 36 37 38 39 40 41 42 43 44 45 46 47 48 49 50
000
ASUS43 KEAX 031410
RWREAX

WEATHER ROUNDUP FOR EASTERN KANSAS AND NORTHWEST MISSOURI
NATIONAL WEATHER SERVICE KANSAS CITY/PLEASANT HILL MO
800 AM CST TUE MAR 03 2015

KSZ040-057-103>105-MOZ028-029-037-043-031500-
...KANSAS CITY METROPOLITAN AREA...

CITY           SKY/WX    TMP DP  RH WIND       PRES   REMARKS
K.C. INTL      DRIZZLE   38  37  97 SW17      29.70S WCI  28
K.C. DOWNTOWN  CLOUDY    41  38  89 SW16G30   29.71F WCI  33
LEES SUMMIT    CLOUDY    38  37  97 SW20G28   29.71F FOG     WCI  28
OLATHE - IXD   CLOUDY    37  37 100 SW20G30   29.73F FOG     WCI  27
OLATHE - OJC   CLOUDY    38  38 100 SW18G28   29.71F FOG     WCI  28
LAWRENCE       CLOUDY    40  37  89 SW14G21   29.71F WCI  32

$$

MOZ001>008-011>017-020>025-030>033-038>040-044>046-053-054-031500-
...NORTHERN AND CENTRAL MISSOURI...

CITY           SKY/WX    TMP DP  RH WIND       PRES   REMARKS
ST. JOSEPH     CLOUDY    37  36  96 SW13      29.70S FOG     WCI  29
MOSBY          CLOUDY    37  37 100 S6        29.73F FOG     WCI  33
WARRENSBURG    CLOUDY    36  34  93 S13       29.76F FOG     WCI  27
WHITEMAN AFB   CLOUDY    37  36  96 SW20      29.74S FOG     WCI  26
CLINTON        CLOUDY    39  37  93 SW13      29.78F FOG     WCI  32
SEDALIA        CLOUDY    40  36  86 SW20G35   29.76F FOG     WCI  30
WARSAW         NOT AVBL
MARSHALL       CLOUDY    39  36  87 S14       29.77F WCI  31
CHILLICOTHE      N/A     35  33  92 S8        29.73F WCI  29
KIRKSVILLE     FOG       32  32 100 S10       29.72F VSB 1   WCI  24

$$

MOZ041-047>049-056>058-063>065-088>090-097-031500-
...EASTERN AND SOUTHERN MISSOURI...

CITY           SKY/WX    TMP DP  RH WIND       PRES   REMARKS
ST. LOUIS INTL DRIZZLE   36  30  80 SE12      29.84F WCI  27
SPIRIT OF STL  CLOUDY    36  33  89 S10G17    29.81F WCI  28
COLUMBIA       CLOUDY    36  34  92 S15       29.76F WCI  27
JEFFERSON CITY CLOUDY    37  34  89 S7        29.81F WCI  32
MEXICO         CLOUDY   N/A N/A N/A S16       29.76F HAZE
ROLLA          FOG       37  36  96 S17G28    29.80F VSB 1   WCI  27
OSAGE BEACH    CLOUDY    37  34  87 S9        29.80F WCI  31
SPRINGFIELD    FOG       38  37  97 S16       29.84F VSB 1/2 WCI  29
BRANSON        FOG       36  32  87 CALM      29.93S VSB 1/4
NEVADA         CLOUDY    37  37 100 SW21G26   29.81S FOG     WCI  27
JOPLIN         CLOUDY    41  40  96 SW18G26   29.86S WCI  32
WEST PLAINS    FOG       34  33  96 S8        29.94S VSB<1/4 WCI  27

$$

IAZ060-094-KSZ022-034>040-054-083-096-NEZ052-066-093-031500-
...KANSAS...SOUTHEAST NEBRASKA AND IOWA...

CITY           SKY/WX    TMP DP  RH WIND       PRES   REMARKS
TOPEKA         CLOUDY    42  37  82 SW12G21   29.69F
MANHATTAN      PTSUNNY   40  35  83 SW17G25   29.67R WCI  31
EMPORIA        CLOUDY    39  37  92 SW25G32   29.71F WCI  28
CHANUTE        CLOUDY    39  39 100 S25G33    29.77F FOG     WCI  28
WICHITA        CLOUDY    37  34  89 S17       29.75S WCI  27
OMAHA          FRZ DRZL  32  31  96 NW3       29.68R VSB 1
LINCOLN        CLOUDY    33  32  96 NW7       29.70R FOG     WCI  27
FALLS CITY     CLOUDY    36  34  92 S5        29.67S FOG     WCI  32
LAMONI         MIX PCPN  32  32 100 S14       29.67F FOG     WCI  22
DES MOINES     FRZ DRZL  32  30  92 S9        29.67S VSB 1   WCI  24

$$




USA.gov is the U.S. government's official web portal to all federal, state and local government web resources and services.